Regional Weather Roundup
Issued by NWS

Home | Current Version | Previous Version | Graphics & Text | Print | Product List | Glossary On
Versions: 1 2 3 4 5 6 7 8 9 10 11 12 13 14 15 16 17 18 19 20 21 22 23 24 25 26 27 28 29 30 31 32 33 34 35 36 37 38 39 40 41 42 43 44 45 46 47 48 49 50
000
ASUS43 KMPX 021210
RWRMN
WEATHER ROUNDUP FOR MINNESOTA
NATIONAL WEATHER SERVICE TWIN CITIES/CHANHASSEN MN
700 AM CDT MON MAY 02 2016


NOTE: "FAIR" INDICATES FEW OR NO CLOUDS BELOW 12,000 FEET WITH NO
SIGNIFICANT WEATHER AND/OR OBSTRUCTIONS TO VISIBILITY. N/A MEANS
CURRENT SKY AND/OR WEATHER CONDITIONS ARE NOT AVAILABLE.

MNZ060>063-068>070-021300-
   Twin Cities Metro

CITY           SKY/WX    TMP DP  RH WIND       PRES   REMARKS
TWIN CITIES    CLEAR     44  36  73 CALM      30.12R
6HR MIN TEMP:  39; 6HR MAX TEMP:  50;

ST PAUL        CLEAR     41  37  86 NW3       30.13R
CRYSTAL        CLEAR     41  35  79 CALM      30.11R
BLAINE         CLEAR     37  37 100 CALM      30.11S
EDEN PRAIRIE   CLEAR     43  37  79 CALM      30.11R
6HR MIN TEMP:  40; 6HR MAX TEMP:  51;

SOUTH ST PAUL  CLEAR     40  35  83 CALM      30.12R
LAKE ELMO      FAIR      36  34  93 CALM      30.12S
$$
MNZ001>005-007-008-013>017-022>024-027-028-021300-
   Northwest Minnesota

CITY           SKY/WX    TMP DP  RH WIND       PRES   REMARKS
BEMIDJI        MOCLDY    32  29  88 CALM      30.09S
HALLOCK        CLOUDY    48  28  46 SE7       30.04S
ROSEAU         CLOUDY    43  36  75 CALM      30.07F
WARROAD        CLEAR     39  36  87 E5        30.09S
THIEF RVR FALL PTCLDY    43  28  56 E7        30.08S
CROOKSTON      PTCLDY    43  34  70 S5        30.07S
FOSSTON        CLEAR     39  30  70 CALM      30.08S
DETROIT LAKES  CLOUDY    43  37  81 SE5       30.09R
MOORHEAD       PTCLDY    43  34  70 SE7       30.07S
PARK RAPIDS    PTCLDY    39  31  72 E3        30.09R
MAHNOMEN       FAIR      43  32  64 CALM      30.07S
$$
MNZ006-009>011-018-025>026-021300-
   North Central Minnesota

CITY           SKY/WX    TMP DP  RH WIND       PRES   REMARKS
BAUDETTE       PTCLDY    38  30  73 CALM      30.09S
FLAG ISLAND    PTCLDY    43  36  75 SE3       30.08S
INTL FALLS     CLEAR     32  29  88 CALM      30.10S
6HR MIN TEMP:  27; 6HR MAX TEMP:  33;

WASKISH        CLEAR     36  34  93 CALM      30.09S
BIG FORK       PTCLDY    32  28  86 CALM      30.10S
LONGVILLE      CLEAR     32  30  93 CALM      30.10S
GRAND RAPIDS   CLEAR     32  28  86 SE3       30.12S
CRANE LAKE     MOSUNNY   27  27 100 CALM      30.14S
ORR            SUNNY     37  28  70 CALM      30.09S
COOK           SUNNY     28  27  93 CALM      30.12S
WALKER         FAIR      39  30  69 CALM      30.09S
$$
MNZ012-019>021-037-021300-
   Northeast Minnesota

CITY           SKY/WX    TMP DP  RH WIND       PRES   REMARKS
DULUTH         MOSUNNY   35  31  85 CALM      30.12S
6HR MIN TEMP:  31; 6HR MAX TEMP:  39;

ELY            SUNNY     32  30  93 CALM      30.13R
HIBBING        SUNNY     29  27  92 CALM      30.12S
EVELETH        SUNNY     30  30 100 CALM      30.14S
DULUTH HARBOR  MOSUNNY   37  36  93 CALM      30.15S
TWO HARBORS    CLOUDY    34  28  80 CALM      30.12S
SILVER BAY     PTSUNNY   32  28  86 CALM      30.12S
GRAND MARAIS     N/A     37  33  85 CALM      30.15R
G MARAIS ARPRT PTSUNNY   32  27  80 CALM      30.13R
$$
MNZ029>031-032-039>041-046>048-054>057-064-021300-
   West Central Minnesota

CITY           SKY/WX    TMP DP  RH WIND       PRES   REMARKS
FERGUS FALLS   CLOUDY    41  34  75 SE3       30.08R
WHEATON        CLOUDY    43  36  75 CALM      30.11R
MORRIS         CLOUDY    39  36  87 SW3       30.09S
ALEXANDRIA     CLEAR     43  32  65 S5        30.10S
ELBOW LAKE     FAIR      42  35  75 CALM      30.10S
WADENA         CLEAR     36  30  80 CALM      30.08F
GLENWOOD       CLEAR     39  36  87 CALM      30.11S
APPLETON       CLOUDY    36  34  93 CALM      30.10S
BENSON         CLEAR     34  30  86 CALM      30.11R FOG
ORTONVILLE     CLOUDY    43  32  65 SW3       30.10S
MADISON        PTCLDY    37  32  81 W3        30.10S
WILLMAR        FAIR      36  34  93 CALM      30.12S
$$
MNZ033>034-036-042>043-049>051-058-059-021300-
   Central Minnesota

CITY           SKY/WX    TMP DP  RH WIND       PRES   REMARKS
ST CLOUD       CLEAR     35  32  88 CALM      30.11S
6HR MIN TEMP:  31; 6HR MAX TEMP:  40;

SAUK CENTRE    FAIR      33  32  95 CALM      30.11S
PAYNESVILLE    CLEAR     33  33  99 CALM      30.12R
AITKIN         CLEAR     34  30  86 CALM      30.10S
PINE RIVER     CLEAR     36  30  80 CALM      30.14R
BRAINERD       CLEAR     34  31  88 CALM      30.11S
STAPLES        CLEAR     36  30  80 CALM      30.10S
LONG PRAIRIE   FAIR      36  32  87 CALM      30.11S
LITTLE FALLS   CLEAR     32  30  93 CALM      30.11S
LITCHFIELD     CLEAR     39  39 100 CALM      30.12S
BUFFALO        CLEAR     37  33  87 CALM      30.13S
MAPLE LAKE     CLEAR     36  35  99 CALM      30.13R
HUTCHINSON     CLOUDY    37  35  93 CALM      30.13R
$$
MNZ037-044-045-052-053-021300-
   East Central Minnesota

CITY           SKY/WX    TMP DP  RH WIND       PRES   REMARKS
PRINCETON      CLEAR     34  32  93 CALM      30.12S
MORA           CLEAR     34  32  93 CALM      30.14S
CAMBRIDGE      CLEAR     36  28  75 CALM      30.10S
RUSH CITY      CLEAR     36  33  89 CALM      30.12S
MOOSE LAKE     CLEAR     32  32 100 CALM      30.11S
HINCKLEY       FAIR      34  34 100 CALM      30.13R
CLOQUET        SUNNY     30  28  93 CALM      30.12S
MCGREGOR       CLEAR     34  32  93 CALM      30.13R
$$
MNZ071>073-080-081-089-090-097-098-021300-
   Southwest Minnesota

CITY           SKY/WX    TMP DP  RH WIND       PRES   REMARKS
MONTEVIDEO     CLEAR     39  34  81 CALM      30.12R
GRANITE FALLS  CLEAR     38  33  82 CALM      30.13S
CANBY          CLEAR     44  35  72 SW5       30.12S
MARSHALL       CLEAR     43  33  68 SW5       30.11F
REDWOOD FALLS  CLEAR     41  32  70 W5        30.11S
OLIVIA         CLEAR     39  32  75 CALM      30.11S
PIPESTONE      CLEAR     37  32  81 CALM      30.12R
WINDOM         CLEAR     37  34  87 CALM      30.12S
WORTHINGTON    CLEAR     39  33  79 W3        30.13S
JACKSON        CLEAR     39  34  81 CALM      30.12S
TRACY          CLEAR     44  34  67 W7        30.12S
SLAYTON        CLEAR     38  33  82 W3        30.13S
$$
MNZ065>067-074>077-082>085-091>093-021300-
   South Central Minnesota

CITY           SKY/WX    TMP DP  RH WIND       PRES   REMARKS
MANKATO        CLEAR     39  34  81 CALM      30.11S
NEW ULM        CLEAR     37  34  87 CALM      30.12R
ST JAMES       CLEAR     36  30  80 CALM      30.13S
FAIRMONT       CLEAR     41  32  70 NW5       30.11S
GLENCOE        CLEAR     38  37  92 CALM      30.11S
FARIBAULT      CLEAR     36  36 100 CALM      30.11S
OWATONNA       CLEAR     37  36  93 CALM      30.11S FOG
WASECA         CLEAR     36  34  93 CALM      30.12S
ALBERT LEA     CLEAR     37  37 100 CALM      30.10S
$$
MNZ078>079-086>088-094>096-021300-
   Southeast Minnesota

CITY           SKY/WX    TMP DP  RH WIND       PRES   REMARKS
ROCHESTER      CLEAR     39  39 100 S6        30.11S
6HR MIN TEMP:  38; 6HR MAX TEMP:  46;

RED WING       CLEAR     39  36  87 CALM      30.11R
STANTON        CLEAR     36  33  92 SW3       30.10S
DODGE CENTER   PTCLDY    39  37  93 CALM      30.10S FOG
WINONA         MOSUNNY   37  37 100 CALM      30.13S FOG
AUSTIN         PTCLDY    37  36  93 CALM      30.10S
PRESTON        CLEAR     42  38  88 CALM      30.12S
$$
ABBREVIATIONS USED IN REMARKS
   TC - TEMPERATURES IN CELSIUS
  WCI - WIND CHILL INDEX
   HX - HEAT INDEX
  VSB - VISIBILITY
$$




USA.gov is the U.S. government's official web portal to all federal, state and local government web resources and services.